Regional Weather Roundup
Issued by NWS

Home | Current Version | Previous Version | Graphics & Text | Print | Product List | Glossary On
Versions: 1 2 3 4 5 6 7 8 9 10 11 12 13 14 15 16 17 18 19 20 21 22 23 24 25 26 27 28 29 30 31 32 33 34 35 36 37 38 39 40 41 42 43 44 45 46 47 48 49 50
000
ASUS44 KMEG 040110
RWRTN
TENNESSEE HOURLY STATE WEATHER ROUNDUP
NATIONAL WEATHER SERVICE MEMPHIS TN
700 PM CST TUE MAR 03 2015

TNZ002-004-019-021-049-052-054-088>092-040200-
WEST TENNESSEE

CITY           SKY/WX    TMP DP  RH WIND       PRES   REMARKS
MEMPHIS INTL   CLOUDY    60  58  92 SW8       29.91R
NWS MEMPHIS      N/A     59 N/A N/A MISG        N/A
JACKSON        LGT RAIN  61  59  93 SW14      29.90S
DYERSBURG      CLOUDY    59  46  63 CALM      29.88F
UNION CITY     CLOUDY    57  57 100 S7        29.87S
PARIS          CLOUDY    57  55  94 S9        29.89S
LEXINGTON      CLOUDY    59  59 100 SW10      29.91R
SAVANNAH       MOCLDY    61  61 100 S5        29.93F
$$

TNZ008-025-027-028-033-062-065-066-040200-
NORTH MIDDLE TENNESSEE

CITY           SKY/WX    TMP DP  RH WIND       PRES   REMARKS
NASHVILLE      HVY RAIN  61  59  93 S13       29.93S FOG
CLARKSVILLE    CLOUDY    61  59  93 SW9       29.89R
SMYRNA         CLOUDY    60  58  93 S7        29.95S
COOKEVILLE     CLOUDY    61  57  88 S8        29.96S
CROSSVILLE     CLOUDY    54  52  93 S8        29.99F
$$

TNZ061-075-076-078-094-096-097-040200-
SOUTH MIDDLE TENNESSEE

CITY           SKY/WX    TMP DP  RH WIND       PRES   REMARKS
FAYETTEVILLE   CLOUDY    55  55 100 S9          N/A  VSB 1
TULLAHOMA      CLOUDY    57  57 100 S7        29.99R
WINCHESTER     CLOUDY    57  57 100 SE7       30.00S
MCMINNVILLE    CLOUDY    61  61 100 S8        29.98R
COLUMBIA       CLOUDY   N/A N/A N/A S10       29.92S
SHELBYVILLE    CLOUDY    61  61 100 S9        29.97F
$$

TNZ017-018-042-046-047-040200-
NORTHEAST TENNESSEE

CITY           SKY/WX    TMP DP  RH WIND       PRES   REMARKS
TRI CITIES     LGT RAIN  46  45  96 CALM      30.03S
ELIZABETHTON   LGT RAIN  48  46  93 CALM      30.03R
$$

TNZ012-013-036-069-073-074-040200-
CENTRAL EAST TENNESSEE

CITY           SKY/WX    TMP DP  RH WIND       PRES   REMARKS
KNOXVILLE      LGT RAIN  48  47  96 CALM      30.03R FOG
OAK RIDGE      LGT RAIN  50  49  96 CALM      30.03F FOG
GATLINBURG     CLOUDY    48  46  93 CALM      30.03R
MORRISTOWN     CLOUDY    46  46 100 CALM      30.04R
$$

TNZ083-085-099-040200-
SOUTHEAST TENNESSEE

CITY           SKY/WX    TMP DP  RH WIND       PRES   REMARKS
CHATTANOOGA    CLOUDY    53  52  96 VRB6      30.05S FOG
$$

SKY/WX REPORTED AS FAIR MEANS FEW OR NO CLOUDS BELOW
12 THOUSAND FEET.




USA.gov is the U.S. government's official web portal to all federal, state and local government web resources and services.